Regional Weather Roundup
Issued by NWS

Home | Current Version | Previous Version | Graphics & Text | Print | Product List | Glossary On
Versions: 1 2 3 4 5 6 7 8 9 10 11 12 13 14 15 16 17 18 19 20 21 22 23 24 25 26 27 28 29 30 31 32 33 34 35 36 37 38 39 40 41 42 43 44 45 46 47 48 49 50
000
ASUS45 KBOU 010707
RWRCO

WEATHER ROUNDUP FOR COLORADO
NATIONAL WEATHER SERVICE DENVER/BOULDER CO
100 AM MDT FRI AUG 01 2014

NOTE: "FAIR" INDICATES FEW OR NO CLOUDS BELOW 12000 FEET WITH NO
SIGNIFICANT WEATHER AND/OR OBSTRUCTIONS TO VISIBILITY.

COZ001>005-013-030-031-010800-
...NORTHWEST COLORADO...

CITY           SKY/WX    TMP DP  RH WIND       PRES   REMARKS
CRAIG          CLOUDY    55  50  83 NE7       30.25R
HAYDEN         CLOUDY    61  46  59 E10       30.28S
MEEKER         CLOUDY    61  51  70 NE5       30.26R
MOUNT WERNER   NOT AVBL
STEAMBOAT SPGS CLOUDY    56  46  70 CALM      30.31S
WALDEN         CLEAR     46  41  81 SE6       30.41S
$$

COZ006>008-011-010800-
...WEST CENTRAL VALLEYS...

CITY           SKY/WX    TMP DP  RH WIND       PRES   REMARKS
GRAND JUNCTION CLOUDY    72  53  51 NE6       30.14R
MONTROSE       MOCLDY    68  53  58 SE3       30.22F
EAGLE          MOCLDY    57  54  88 S3        30.32S
RIFLE          CLOUDY    66  50  56 SE8       30.20S
DELTA          MOCLDY    72  51  47 NE8       30.18S
NUCLA          MOCLDY    70  45  40 NW16G26   30.28S
$$

COZ017>023-064>068-010800-
...SOUTHWEST COLORADO...

CITY           SKY/WX    TMP DP  RH WIND       PRES   REMARKS
DURANGO        MOCLDY    62  51  67 SE9       30.33R
CORTEZ         CLEAR     67  53  61 VRB3      30.26R
PAGOSA SPRINGS LGT RAIN  58  55  87 CALM      30.41F
TELLURIDE      MOCLDY    55  48  76 E5        30.44F
WOLF CREEK PAS NOT AVBL
$$

COZ009-010-012-014-032>034-037-058>063-010800-
...CENTRAL COLORADO...

CITY           SKY/WX    TMP DP  RH WIND       PRES   REMARKS
ASPEN          MOCLDY    53  50  89 SW5       30.35F
BUENA VISTA    CLOUDY    53  51  94 CALM      30.45F
COPPER MTN     PTCLDY    46  37  71 S16       30.66S
BERTHOUD PASS  CLOUDY    36  34  93 SE15      30.70S
COTTONWOOD PAS CLOUDY    50  46  87 CALM      30.55F
GUNNISON       MOCLDY    55  48  76 NE6       30.43F
KREMMLING      PTCLDY    54  45  71 CALM      30.38F
LEADVILLE      MOCLDY    47  46  97 CALM        N/A
MONARCH PASS   CLOUDY    41  37  87 S12       30.76F FOG
SALIDA         CLOUDY    56  54  92 CALM      30.49F
SUNLIGHT       CLOUDY    52  46  82 CALM      30.57F
WILKERSON PASS FOG       43  41  93 E3        30.65F VSB 1/4
$$

COZ069>075-010800-
...SAN LUIS VALLEY/SANGRE DE CRISTO MOUNTAINS...

CITY           SKY/WX    TMP DP  RH WIND       PRES   REMARKS
ALAMOSA        PTCLDY    53  50  89 E5        30.40R
LA VETA PASS   FOG       46  45  93 NE3       30.56S VSB 1/4
SAGUACHE       CLOUDY    55  52  88 W3        30.45S
$$

COZ035-036-038>040-010800-
...NORTHERN COLORADO FRONT RANGE...

CITY           SKY/WX    TMP DP  RH WIND       PRES   REMARKS
DENVER INTL AP PTCLDY    61  53  75 SW9       30.28S
DMNS CITY PARK   N/A     61  52  72 S5        30.28S
AURORA         PTCLDY    58  55  89 S6        30.30F
FRONT RANGE AP PTCLDY    63  55  77 SW10      30.29S
ERIE MUNI ARPT CLEAR     57  52  84 CALM      30.26S
BOULDER MUN AP CLEAR     64  45  48 SW7       30.27S
CENTENNIAL     PTCLDY    59  54  83 SE3       30.31S
BROOMFIELD     CLEAR     59  50  72 W6        30.29F
FORT COLLINS   CLEAR     63  48  59 SW3       30.26S
LONGMONT       CLEAR     62  50  65 W6        30.28S
$$

COZ041-046-047-076>085-087-088-010800-
...PIKES PEAK/PALMER DIVIDE AND SOUTHERN FOOTHILLS...

CITY           SKY/WX    TMP DP  RH WIND       PRES   REMARKS
COLO. SPRINGS  CLOUDY    62  57  83 CALM      30.35F
A. F. ACADEMY  CLOUDY    56  56  99 N3        30.36F
ELLICOTT       CLOUDY    58  54  86 SW5       30.34S
FALCON         CLOUDY    56  55  97 W5        30.39F FOG
FORT CARSON    CLOUDY    60  57  88 SW2       30.33F
LIMON          CLEAR     53  52  96 N5        30.29F
MONUMENT HILL  PTCLDY    52  52 100 SW3       30.37F
TRINIDAD       CLOUDY    62  56  80 W7        30.32
$$

COZ042>045-048>051-090-091-010800-
...NORTHEAST COLORADO...

CITY           SKY/WX    TMP DP  RH WIND       PRES   REMARKS
GREELEY ARPT   NOT AVBL
AKRON          PTCLDY    62  53  72 SW12      30.22F
BURLINGTON     CLEAR     60  51  72 W9        30.21S
WRAY             N/A     65  54  68 N8        30.19R
STERLING       PTCLDY    61  59  94 CALM      30.19S
HOLYOKE        CLEAR     63  54  72 E5        30.18S
FORT MORGAN    PTCLDY    60  53  78 W8        30.23S
$$

COZ086-089-092>099-010800-
...SOUTHEAST COLORADO...

CITY           SKY/WX    TMP DP  RH WIND       PRES   REMARKS
PUEBLO         CLOUDY    64  61  90 CALM      30.27F
LA JUNTA       CLOUDY    63  59  87 W5        30.23F
LAMAR          PTCLDY    61  57  87 CALM      30.19F
SPRINGFIELD      N/A     61  57  87 SW5       30.24F
$$


USA.gov is the U.S. government's official web portal to all federal, state and local government web resources and services.